Covington, KY

9:00 AM EDT on March 25, 2017 (GMT -0400)
Cincinnati-Northern KY International

Weather History for KCVG - August, 2014

Change the Weather History Date:

Tuesday, August 19, 2014

  Actual Average Record
Temperature  
Mean Temperature 77 °F 75 °F  
Max Temperature 87 °F 85 °F 102 °F (1936)
Min Temperature 66 °F 65 °F 49 °F (1953)
Degree Days  
Heating Degree Days 0 0  
Month to date heating degree days 0 0  
Since 1 June heating degree days 8 15  
Since 1 July heating degree days 5 0  
Cooling Degree Days 12 10  
Month to date cooling degree days 156 199  
Year to date cooling degree days 781 858  
Since 1 June cooling degree days 647 764  
Growing Degree Days 26 (Base 50)    
Moisture  
Dew Point 68 °F    
Average Humidity 76    
Maximum Humidity 100    
Minimum Humidity 51    
Precipitation  
Precipitation T in 0.11 in 1.37 in (1905)
Month to date precipitation 2.05 2.17  
Year to date precipitation 28.57 28.55  
Snow  
Snow 0.00 in 0.00 in 0.00 in ()
Month to date snowfall 0.0 0.0  
Since 1 June snowfall 0.0 0.0  
Since 1 July snowfall 0.0 0.0  
Snow Depth 0.00 in    
Sea Level Pressure  
Sea Level Pressure 29.83 in    
Wind  
Wind Speed 5 mph (SW)    
Max Wind Speed 13 mph    
Max Gust Speed 17 mph    
Visibility 5 miles    
Events Fog    
T = Trace of Precipitation, MM = Missing Value Source: NWS Daily Summary

Daily Weather History Graph

Daily Weather History Graph

Search for Another Location

Airport or City:

Trip Planner

Search our weather history database for the weather conditions in past years. The results will help you decide how hot, cold, wet, or windy it might be!

Date:

Astronomy

Aug. 19, 2014 Rise Set
Actual Time 6:55 AM EDT 8:28 PM EDT
Civil Twilight 6:27 AM EDT 8:56 PM EDT
Nautical Twilight 5:53 AM EDT 9:30 PM EDT
Astronomical Twilight 5:17 AM EDT 10:06 PM EDT
Moon 1:47 AM EDT (8/19) 4:23 PM EDT (8/19)
Length of Visible Light 14h 28m
Length of Day
13h 32m
Waning Crescent, 29% of the Moon is Illuminated
Aug 19
Waning Crescent
Aug 25
New
Sep 2
First Quarter
Sep 8
Full
Sep 15
Last Quarter

Hourly Weather History & Observations

Time (EDT) Temp. Heat Index Dew Point Humidity Pressure Visibility Wind Dir Wind Speed Gust Speed Precip Events Conditions
12:52 AM 72.0 °F - 69.1 °F 91% 29.81 in 5.0 mi WSW 4.6 mph - N/A   Scattered Clouds
1:52 AM 70.0 °F - 66.9 °F 90% 29.80 in 4.0 mi WSW 5.8 mph - N/A   Partly Cloudy
2:52 AM 70.0 °F - 66.9 °F 90% 29.79 in 3.0 mi West 4.6 mph - N/A   Clear
3:52 AM 70.0 °F - 68.0 °F 93% 29.79 in 4.0 mi Calm Calm - N/A   Clear
3:55 AM 69.8 °F - 68.0 °F 94% 29.82 in 3.0 mi SE 3.5 mph - N/A   Partly Cloudy
4:35 AM 69.8 °F - 66.2 °F 88% 29.82 in 2.0 mi Calm Calm - N/A Fog Patches of Fog
4:52 AM 69.8 °F - 66.2 °F 88% 29.82 in 2.0 mi Calm Calm - N/A Fog Patches of Fog
5:20 AM 66.2 °F - 66.2 °F 100% 29.83 in 1.5 mi Calm Calm - N/A   Partly Cloudy
5:29 AM 66.2 °F - 64.4 °F 94% 29.83 in 0.8 mi Calm Calm - N/A   Mostly Cloudy
5:52 AM 68.0 °F - 66.9 °F 96% 29.80 in 0.5 mi Calm Calm - N/A Fog Fog
6:20 AM 68.0 °F - 66.2 °F 94% 29.84 in 0.2 mi Calm Calm - N/A Fog Fog
6:52 AM 68.0 °F - 66.0 °F 93% 29.81 in 0.2 mi Calm Calm - N/A Fog Fog
7:52 AM 69.8 °F - 68.0 °F 94% 29.87 in 0.2 mi SW 3.5 mph - N/A Fog Fog
8:52 AM 71.1 °F - 69.1 °F 93% 29.84 in 0.2 mi SW 3.5 mph - N/A Fog Fog
9:12 AM 71.6 °F - 69.8 °F 94% 29.87 in 0.2 mi SW 3.5 mph - N/A Fog Fog
9:52 AM 72.0 °F - 71.1 °F 97% 29.85 in 1.5 mi WSW 3.5 mph - N/A   Overcast
10:08 AM 73.4 °F - 71.6 °F 94% 29.88 in 2.5 mi SSW 3.5 mph - N/A   Mostly Cloudy
10:20 AM 73.4 °F - 71.6 °F 94% 29.88 in 3.0 mi SW 4.6 mph - N/A   Scattered Clouds
10:52 AM 78.1 °F - 71.1 °F 79% 29.86 in 3.0 mi SSW 3.5 mph - N/A   Partly Cloudy
11:08 AM 78.8 °F - 71.6 °F 78% 29.89 in 7.0 mi SW 5.8 mph - N/A   Partly Cloudy
11:52 AM 81.0 °F 85.2 °F 72.0 °F 74% 29.85 in 8.0 mi Variable 3.5 mph - N/A   Scattered Clouds
12:22 PM 82.4 °F 87.2 °F 71.6 °F 70% 29.87 in 8.0 mi WSW 6.9 mph - N/A   Mostly Cloudy
12:43 PM 82.4 °F 86.3 °F 69.8 °F 66% 29.88 in 10.0 mi SSW 3.5 mph - N/A   Mostly Cloudy
12:52 PM 82.9 °F 87.0 °F 70.0 °F 65% 29.84 in 10.0 mi Variable 4.6 mph - N/A   Mostly Cloudy
1:52 PM 84.9 °F 88.2 °F 68.0 °F 57% 29.84 in 10.0 mi SSW 9.2 mph 16.1 mph N/A   Scattered Clouds
2:52 PM 86.0 °F 88.8 °F 66.9 °F 53% 29.83 in 8.0 mi WSW 9.2 mph - N/A   Scattered Clouds
3:52 PM 86.0 °F 88.8 °F 66.9 °F 53% 29.81 in 8.0 mi South 12.7 mph 17.3 mph N/A   Scattered Clouds
4:52 PM 84.2 °F 86.6 °F 66.2 °F 55% 29.84 in 8.0 mi SW 9.2 mph 17.3 mph N/A   Scattered Clouds
5:52 PM 86.0 °F 88.2 °F 66.0 °F 51% 29.79 in 8.0 mi SSW 8.1 mph - N/A   Scattered Clouds
6:52 PM 82.9 °F 85.0 °F 66.0 °F 56% 29.79 in 9.0 mi South 5.8 mph - N/A   Mostly Cloudy
7:52 PM 82.0 °F 84.1 °F 66.0 °F 58% 29.81 in 8.0 mi WSW 4.6 mph - N/A   Mostly Cloudy
8:52 PM 80.1 °F 82.3 °F 66.9 °F 64% 29.81 in 8.0 mi Calm Calm - N/A   Overcast
9:52 PM 77.0 °F - 69.1 °F 76% 29.83 in 7.0 mi SSW 3.5 mph - N/A   Overcast
10:52 PM 75.9 °F - 68.0 °F 76% 29.83 in 7.0 mi SSW 5.8 mph - N/A   Mostly Cloudy
11:52 PM 75.9 °F - 69.1 °F 79% 29.82 in 6.0 mi SSW 5.8 mph - N/A   Haze